EUTELSAT 174A

Last updated on June 27, 2019, 3:44 a.m. UTC

1 28924U 05052A   19177.47953340  .00000017  00000-0  00000+0 0  9994
2 28924   0.0637   3.3545 0006142  93.9519 163.6430  1.00273802 49438
UTC
Height (km)
Latitude
Longitude
Inclination
Orbital Period
UTC large
Height (km)
Speed (km/s)
/
Latitude / Longitude
Inclination (degrees)
Orbital Period (minutes)
Azimuth
Elevation
Range (km)
Doppler Factor
iOS Compass Heading
iOS Angle

Next 30 passes for location: Hong Kong

Rise time Rise Azimuth (degrees) Set time Set Azimuth (degrees) Duration Max altitude (degrees)

No matching passes for this satellites